Flag for Netherlands Weather past 2 weeks in Philipsburg, Saint Martin, Netherlands

Now
82 °F

Passing clouds.


Feels Like: 87 °F
Forecast: 81 / 86 °F
Wind: 9 mph from East

Location: Juliana Airport - Saint Maarten

Current Time: Jul 1, 2015 at 9:51:02 PM

Latest Report: Jul 1, 2015 at 9:00 PM


Visibility: N/A

Pressure: 30.09 "Hg

Humidity: 70%

Dew point: 72 °F

Location of PhilipsburgLocation

Historic Weather in Philipsburg — Graph

°F

Philipsburg temperature yesterday

Maximum temperature yesterday: 86 °F (at 11:00 AM)
Minimum temperature yesterday: 79 °F (at 3:00 AM)
Average temperature yesterday: 82 °F

Past Weeks' High & Low Weather Summary

 TemperatureHumidityPressure
High88 °F (Jun 17, 4:00 PM)89% (Jun 27, 6:00 AM)30.18 "Hg (Jun 27, 6:00 AM)
Low77 °F (Jun 27, 6:00 AM)52% (Jun 25, 1:00 PM)29.83 "Hg (Jun 20, 9:00 AM)
Average83 °F71%30.09 "Hg
* Reported Jun 16 9:00 PM — Jul 1 9:00 PM, Philipsburg, Weather by CustomWeather, © 2015

Note: Actual official high and low records may vary slightly from our data, if they occured in-between our weather recording intervals... More about our weather records

Advertising

Philipsburg weather history for previous 24 hours

 ConditionsComfort  
Time TempWeatherWind HumidityBarometerVisibility
9:00 PM
Wed, Jul 1
82 °FPassing clouds.9 mph70%30.09 "HgN/A
8:00 PM82 °FPassing clouds.12 mph70%30.07 "HgN/A
7:00 PM82 °FPassing clouds.10 mph70%30.07 "HgN/A
6:00 PM82 °FPassing clouds.12 mph70%30.07 "HgN/A
5:00 PM84 °FPartly sunny.14 mph66%30.07 "HgN/A
4:00 PM84 °FPassing clouds.15 mph66%30.07 "HgN/A
3:00 PM84 °FScattered clouds.15 mph66%30.07 "HgN/A
2:00 PM86 °FPassing clouds.17 mph62%30.07 "HgN/A
1:00 PM86 °FScattered clouds.17 mph62%30.09 "HgN/A
12:00 PM84 °FScattered clouds.17 mph66%30.09 "HgN/A
11:00 AM86 °FPartly sunny.16 mph66%30.12 "HgN/A
10:00 AM84 °FScattered clouds.17 mph70%30.12 "HgN/A
9:00 AM84 °FScattered clouds.16 mph66%30.12 "HgN/A
8:00 AM82 °FScattered clouds.14 mph74%30.12 "HgN/A
7:00 AM82 °FPassing clouds.15 mph70%30.12 "HgN/A
6:00 AM81 °FPassing clouds.14 mph79%30.09 "HgN/A
5:00 AM81 °FPassing clouds.12 mph79%30.09 "HgN/A
2:00 AM82 °FPassing clouds.18 mph74%30.09 "HgN/A
1:00 AM82 °FPassing clouds.15 mph74%30.09 "HgN/A
12:00 AM82 °FPassing clouds.13 mph74%30.12 "HgN/A
11:00 PM
Tue, Jun 30
82 °FPassing clouds.13 mph74%30.12 "HgN/A
9:00 PM82 °FSprinkles. Partly cloudy.15 mph74%30.12 "HgN/A
Weather by CustomWeather, © 2015

See weather overviewHow to use our weather pages